Flight Track Log - Related Links

Times and Time Zones

All times are in EDT time to prevent confusion due to time zone crossing. See the HAL118 flight status page for this flight to view local times or setup timezone preferences in your user account.

Time Position Orientation Groundspeed Altitude Reporting Facility
EDT Latitude Longitude Course Direction KTS MPH feet Rate Location/Type
Mon 01:16:21 PM 21.3167 -157.8833 118° Southeast 180 207 1,100  Level Honolulu Center
Mon 01:17:21 PM 21.2833 -157.8500 137° Southeast 220 253 2,600 1,950 Climbing Honolulu Center
Mon 01:18:21 PM 21.2333 -157.8000 137° Southeast 240 276 5,000 2,200 Climbing Honolulu Center
Mon 01:19:00 PM 21.1710 -157.6776 113° Southeast  Level FlightAware Approximate
Mon 01:19:21 PM 21.2000 -157.7333 118° Southeast 280 322 7,000  Level Honolulu Center
Mon 01:20:00 PM 21.1339 -157.6176 126° Southeast  Level FlightAware Approximate
Mon 01:20:22 PM 21.1500 -157.6500 123° Southeast 290 334 9,100  Level Honolulu Center
Mon 01:21:00 PM 21.0958 -157.5582 118° Southeast  Level FlightAware Approximate
Mon 01:21:22 PM 21.1000 -157.5833 129° Southeast 310 357 10,700  Level Honolulu Center
Mon 01:22:22 PM 21.0500 -157.4833 118° Southeast 350 403 11,800 1,450 Climbing Honolulu Center
Mon 01:23:22 PM 21.0000 -157.4000 123° Southeast 380 437 13,600 1,700 Climbing Honolulu Center
Mon 01:24:22 PM 20.9500 -157.3000 118° Southeast 390 449 15,200 1,600 Climbing Honolulu Center
Mon 01:25:22 PM 20.8667 -157.2167 137° Southeast 400 460 16,800 1,850 Climbing Honolulu Center
Mon 01:26:22 PM 20.7833 -157.1500 143° Southeast 400 460 18,900 2,100 Climbing Honolulu Center
Mon 01:27:22 PM 20.6833 -157.0833 148° Southeast 390 449 21,000 1,050 Climbing Honolulu Center
Mon 01:28:22 PM 20.5833 -157.0167 148° Southeast 410 472 21,000  Level Honolulu Center
Mon 01:29:22 PM 20.4833 -156.9500 148° Southeast 420 483 21,000  Level Honolulu Center
Mon 01:30:23 PM 20.3833 -156.8833 148° Southeast 420 483 21,000 -149 Level Honolulu Center
Mon 01:31:23 PM 20.2833 -156.8000 142° Southeast 420 483 20,700 -1,650 Descending Honolulu Center
Mon 01:32:23 PM 20.2000 -156.7333 143° Southeast 410 472 17,700 -3,000 Descending Honolulu Center
Mon 01:33:23 PM 20.1000 -156.6667 148° Southeast 400 460 14,700 -2,750 Descending Honolulu Center
Mon 01:34:23 PM 20.0167 -156.6000 143° Southeast 380 437 12,200 -2,500 Descending Honolulu Center
Mon 01:35:23 PM 19.9333 -156.5500 151° Southeast 370 426 9,700 -1,650 Descending Honolulu Center
Mon 01:36:23 PM 19.8833 -156.4667 123° Southeast 310 357 8,900 -1,289 Descending Honolulu Center
Mon 01:37:24 PM 19.8333 -156.4000 129° Southeast 280 322 7,100 -1,785 Descending Honolulu Center
Mon 01:38:24 PM 19.8000 -156.3333 118° Southeast 270 311 5,300 -1,765 Descending Honolulu Center
Mon 01:39:23 PM 19.7667 -156.2500 113° Southeast 280 322 3,600 -1,729 Descending Honolulu Center

Login

Don't have an account? Register now (free) for customized features, flight alerts, and more!